Voltar ao catálogo

ARIANE 5 DEB

SYLDA

AtivoHEO
NORAD 41594·DEBRIS·🇫🇷 France

Lançado Jun 18, 2016 de Guiana Space Centre

Loading…

Próximas Passagens (próximas 24 horas)

TLE

AtualizadoSource: Space-Track

Época: Sep 14, 2026, 05:36 UTC

1 41594U 16039D   26257.23357853  .00000936  00000-0  86044-3 0  9993
2 41594   5.9478 198.0467 5694570 217.7890  83.8614  4.39170305120479

Acompanhe ARIANE 5 DEB em tempo real com AllMySat

Download on the App Store